User: anonymous   Login
Location: Lawrence
(38.9720°N, 95.2350°W)
Time: 08:22:51
(UTC-05:00)
Language:

ALOS - Orbit

View from above orbital plane
View from above orbital plane
View from above satellite
View from above satellite

Ground track
Ground track

The orbit data is extracted from the following two-line orbital elements,

1 28931U 06002A   16183.17575092  .00000149  00000-0  38336-4 0  9997
2 28931  97.8839 221.3284 0001704  51.2484 308.8870 14.62206535556168
Epoch (UTC): 01 July 2016 04:13:04
Eccentricity: 0.0001704
inclination: 97.8839°
perigee height: 685 km
apogee height: 687 km
right ascension of ascending node: 221.3284°
argument of perigee: 51.2484°
revolutions per day: 14.62206535
mean anomaly at epoch: 308.8870°
orbit number at epoch: 55616

The dashed part of the orbit path shows where the satellite is in the earth's shadow,  

DLR